TimePST,TemperatureF,Dew PointF,Humidity,Sea Level PressureIn,VisibilityMPH,Wind Direction,Wind SpeedMPH,Gust SpeedMPH,PrecipitationIn,Events,Conditions,WindDirDegrees,DateUTC
12:15 AM,26.6,26.6,100,29.82,7.0,Calm,Calm,-,N/A,,Unknown,0,2012-12-14 08:15:00
12:35 AM,28.4,26.6,93,29.82,9.0,Calm,Calm,-,N/A,,Unknown,0,2012-12-14 08:35:00
12:55 AM,28.4,26.6,93,29.81,8.0,Calm,Calm,-,N/A,,Unknown,0,2012-12-14 08:55:00
1:15 AM,28.4,26.6,93,29.81,10.0,Calm,Calm,-,N/A,,Unknown,0,2012-12-14 09:15:00
1:35 AM,28.4,26.6,93,29.80,7.0,Calm,Calm,-,N/A,,Unknown,0,2012-12-14 09:35:00
1:55 AM,28.4,26.6,93,29.80,8.0,Calm,Calm,-,N/A,,Unknown,0,2012-12-14 09:55:00
2:15 AM,28.4,26.6,93,29.80,2.0,Calm,Calm,-,N/A,,Unknown,0,2012-12-14 10:15:00
2:35 AM,28.4,26.6,93,29.79,8.0,Calm,Calm,-,N/A,,Unknown,0,2012-12-14 10:35:00
2:55 AM,28.4,26.6,93,29.79,6.0,Calm,Calm,-,N/A,,Unknown,0,2012-12-14 10:55:00
3:15 AM,28.4,26.6,93,29.79,5.0,Calm,Calm,-,N/A,,Unknown,0,2012-12-14 11:15:00
3:35 AM,28.4,26.6,93,29.79,6.0,Calm,Calm,-,N/A,,Unknown,0,2012-12-14 11:35:00
3:55 AM,28.4,26.6,93,29.79,6.0,Calm,Calm,-,N/A,,Unknown,0,2012-12-14 11:55:00
4:15 AM,28.4,26.6,93,29.80,6.0,Calm,Calm,-,N/A,,Unknown,0,2012-12-14 12:15:00
4:35 AM,28.4,26.6,93,29.80,6.0,Calm,Calm,-,N/A,,Unknown,0,2012-12-14 12:35:00
4:55 AM,28.4,26.6,93,29.80,7.0,Calm,Calm,-,N/A,,Unknown,0,2012-12-14 12:55:00
5:15 AM,28.4,28.4,100,29.80,8.0,Calm,Calm,-,N/A,,Unknown,0,2012-12-14 13:15:00
5:35 AM,28.4,28.4,100,29.81,7.0,Calm,Calm,-,N/A,,Unknown,0,2012-12-14 13:35:00
5:55 AM,28.4,28.4,100,29.81,5.0,Calm,Calm,-,N/A,,Unknown,0,2012-12-14 13:55:00
6:15 AM,28.4,28.4,100,29.81,5.0,Calm,Calm,-,N/A,,Unknown,0,2012-12-14 14:15:00
6:35 AM,28.4,28.4,100,29.82,7.0,Calm,Calm,-,N/A,,Unknown,0,2012-12-14 14:35:00
6:55 AM,30.2,28.4,93,29.82,8.0,Calm,Calm,-,N/A,,Unknown,0,2012-12-14 14:55:00
7:15 AM,30.2,28.4,93,29.83,7.0,Calm,Calm,-,N/A,,Unknown,0,2012-12-14 15:15:00
7:35 AM,30.2,28.4,93,29.83,6.0,Calm,Calm,-,N/A,,Unknown,0,2012-12-14 15:35:00
7:55 AM,30.2,28.4,93,29.83,5.0,Calm,Calm,-,N/A,,Unknown,0,2012-12-14 15:55:00
8:15 AM,30.2,28.4,93,29.84,5.0,Calm,Calm,-,N/A,,Unknown,0,2012-12-14 16:15:00
8:35 AM,28.4,28.4,100,29.84,4.0,Calm,Calm,-,N/A,,Unknown,0,2012-12-14 16:35:00
8:55 AM,30.2,28.4,93,29.85,4.0,Calm,Calm,-,N/A,,Unknown,0,2012-12-14 16:55:00
9:15 AM,32.0,28.4,87,29.86,5.0,Calm,Calm,-,N/A,,Unknown,0,2012-12-14 17:15:00
9:35 AM,32.0,28.4,87,29.86,9.0,Calm,Calm,-,N/A,,Unknown,0,2012-12-14 17:35:00
9:55 AM,33.8,28.4,81,29.86,10.0,Calm,Calm,-,N/A,,Unknown,0,2012-12-14 17:55:00
10:15 AM,35.6,30.2,81,29.87,10.0,SW,3.5,-,N/A,,Unknown,230,2012-12-14 18:15:00
10:35 AM,35.6,30.2,81,29.87,5.0,Calm,Calm,-,N/A,,Unknown,0,2012-12-14 18:35:00
10:55 AM,37.4,30.2,75,29.86,10.0,SW,3.5,-,N/A,,Unknown,220,2012-12-14 18:55:00
11:15 AM,37.4,30.2,75,29.86,10.0,WSW,3.5,-,N/A,,Unknown,240,2012-12-14 19:15:00
11:35 AM,39.2,30.2,70,29.86,9.0,South,3.5,-,N/A,,Unknown,180,2012-12-14 19:35:00
11:55 AM,39.2,32.0,75,29.84,10.0,SW,4.6,-,N/A,,Unknown,230,2012-12-14 19:55:00
12:35 PM,41.0,28.4,61,29.84,10.0,South,4.6,-,N/A,,Unknown,190,2012-12-14 20:35:00
12:55 PM,41.0,30.2,65,29.84,10.0,SSW,9.2,-,N/A,,Unknown,210,2012-12-14 20:55:00
1:15 PM,41.0,30.2,65,29.85,10.0,WSW,6.9,-,N/A,,Unknown,250,2012-12-14 21:15:00
1:35 PM,41.0,30.2,65,29.85,10.0,SW,6.9,-,N/A,,Unknown,220,2012-12-14 21:35:00
1:55 PM,41.0,30.2,65,29.86,10.0,SSW,6.9,-,N/A,,Unknown,210,2012-12-14 21:55:00
2:15 PM,41.0,32.0,70,29.87,10.0,SSW,3.5,-,N/A,,Unknown,210,2012-12-14 22:15:00
2:35 PM,41.0,32.0,70,29.87,10.0,SW,6.9,-,N/A,,Unknown,220,2012-12-14 22:35:00
2:55 PM,41.0,32.0,70,29.87,10.0,SW,4.6,-,N/A,,Unknown,220,2012-12-14 22:55:00
3:15 PM,41.0,32.0,70,29.88,10.0,West,5.8,-,N/A,,Unknown,270,2012-12-14 23:15:00
3:35 PM,41.0,32.0,70,29.89,10.0,WSW,3.5,-,N/A,,Unknown,240,2012-12-14 23:35:00
3:55 PM,41.0,32.0,70,29.89,10.0,SW,3.5,-,N/A,,Unknown,220,2012-12-14 23:55:00
4:15 PM,41.0,32.0,70,29.90,10.0,SSW,3.5,-,N/A,,Unknown,200,2012-12-15 00:15:00
4:35 PM,39.2,32.0,75,29.90,10.0,South,3.5,-,N/A,,Unknown,190,2012-12-15 00:35:00
4:55 PM,35.6,32.0,87,29.91,10.0,NNE,3.5,-,N/A,,Unknown,30,2012-12-15 00:55:00
5:15 PM,35.6,32.0,87,29.92,8.0,North,3.5,-,N/A,,Unknown,10,2012-12-15 01:15:00
5:35 PM,32.0,30.2,93,29.93,10.0,Calm,Calm,-,N/A,,Unknown,0,2012-12-15 01:35:00
5:55 PM,32.0,28.4,87,29.93,10.0,Calm,Calm,-,N/A,,Unknown,0,2012-12-15 01:55:00
6:15 PM,32.0,28.4,87,29.93,10.0,Calm,Calm,-,N/A,,Unknown,0,2012-12-15 02:15:00
6:35 PM,30.2,28.4,93,29.94,10.0,Calm,Calm,-,N/A,,Unknown,0,2012-12-15 02:35:00
6:55 PM,28.4,28.4,100,29.93,10.0,Calm,Calm,-,N/A,,Unknown,0,2012-12-15 02:55:00
7:15 PM,28.4,28.4,100,29.94,10.0,Calm,Calm,-,N/A,,Unknown,0,2012-12-15 03:15:00
7:35 PM,28.4,26.6,93,29.95,10.0,Calm,Calm,-,N/A,,Unknown,0,2012-12-15 03:35:00
7:55 PM,28.4,26.6,93,29.95,9.0,Calm,Calm,-,N/A,,Unknown,0,2012-12-15 03:55:00
8:15 PM,28.4,26.6,93,29.96,6.0,Calm,Calm,-,N/A,,Unknown,0,2012-12-15 04:15:00
8:35 PM,28.4,26.6,93,29.97,8.0,North,3.5,-,N/A,,Unknown,10,2012-12-15 04:35:00
8:55 PM,28.4,26.6,93,29.97,5.0,ENE,3.5,-,N/A,,Unknown,70,2012-12-15 04:55:00
9:15 PM,28.4,26.6,93,29.98,7.0,Calm,Calm,-,N/A,,Unknown,0,2012-12-15 05:15:00
9:35 PM,26.6,26.6,100,29.98,5.0,Calm,Calm,-,N/A,,Unknown,0,2012-12-15 05:35:00
10:15 PM,26.6,24.8,93,29.99,8.0,Calm,Calm,-,N/A,,Unknown,0,2012-12-15 06:15:00
10:35 PM,26.6,24.8,93,29.99,6.0,Calm,Calm,-,N/A,,Unknown,0,2012-12-15 06:35:00
10:55 PM,26.6,24.8,93,30.00,6.0,Calm,Calm,-,N/A,,Unknown,0,2012-12-15 06:55:00
11:15 PM,26.6,24.8,93,30.02,7.0,Calm,Calm,-,N/A,,Unknown,0,2012-12-15 07:15:00
11:35 PM,26.6,24.8,93,30.01,8.0,Calm,Calm,-,N/A,,Unknown,0,2012-12-15 07:35:00
11:55 PM,26.6,24.8,93,30.02,10.0,Calm,Calm,-,N/A,,Unknown,0,2012-12-15 07:55:00